STARLINK-5732, 55572

Orbit data source: Space-Track

STARLINK-5732, 55572 is a payload satellite owned by SpaceX/Seattle (US) in LEO that was launched on Sun, 12 Feb 2023 UTC via an FALCON 9 launch vehicle from the Air Force Eastern Test Range (AFETR). Payload-class satellites include a variety of spacecraft equipped with specific instruments for various scientific and technological missions. These include communications satellites like Starlink; space stations such as the ISS; scientific satellites like the Hubble; Earth observation satellites from companies like Planet Labs, Umbra, and HawkEye 360; GPS; miniature CubeSats for education and research; and military/defense satellites.

Loading next visibility...
Identifier
55572, 2023-020D
Orbit
LEO
Country
Flag of USUS
Related business
Manufacturer
SpaceX/Seattle
Mission
Operational Commercial Communications
Bus & Motor
STARLINK, Unknown motor
Mass
305 kg wet, ~290 kg dry
Launch date (UTC)
2023-02-12 (3 years ago)
Launch vehicle
FALCON 9
Launch site
Air Force Eastern Test Range (AFETR)
Object type
Payload
Rocket body
Debris
Shape & HBR
Box + 1 Pan, 10.1 m
Radar Cross Section
13.562 m², Large (>1 m²)

Expand to show TLE details & history
Last TLE update: 16 hours ago

TLE from 16 hours ago
0 STARLINK-5732
1 55572U 23020D   25340.53699250  .00000077  00000-0  20785-4 0  9994
2 55572  43.0032 151.0711 0001199 265.0312  95.0394 15.02532090154909
Epoch: 2025-12-06T12:53Z
TLE epoch observation values (Epoch: 2025-12-06T12:53:16.152Z)
Latitude
0.00004°
Longitude
-117.80947°
Altitude
558.943 km
Speed
7.584 km/s
True Right ascension
10h 04m 17s
True Declination
0° 00' 00"
Sunlit
Object was in daylight at epoch
Visualization orbit readout
Latitude
Unknown
Longitude
Unknown
Altitude
Unknown
Speed
Unknown
Apparent Right ascension
Unknown
Apparent Declination
Unknown
Sunlit
N/A
Visualization observer readout
Local Sidereal Time
03:12:17
Azimuth
Unknown
Elevation
Unknown
Doppler factor
Unknown
Orbital elements
Apogee altitude
561.847 km
Perigee altitude
560.183 km
Semi-major axis
6,939.152 km
Eccentricity
0.00012
Inclination
43.0032°
RAAN
151.0711°
Arg. of periapsis
265.0312°
True anomaly
95.05309°
Mean anomaly
95.0394°
Eccentric anomaly
95.04624°
Mean motion
3.75477 °/min
Orbital period
95.88 mins
BSTAR
0.000020785
Loading maneuver chart data...
Computing Atmospheric mass density...
Loading historical data...
Loading historical data...
Loading historical data...
Loading historical data...
Loading historical data...
Loading historical data...
Loading historical data...

Documentation

Showing up to 5 results
|